Regional Weather Roundup
Issued by NWS

Home | Current Version | Previous Version | Text Only | Print | Product List | Glossary Off
Versions: 1 2 3 4 5 6 7 8 9 10 11 12 13 14 15 16 17 18 19 20 21 22 23 24 25 26 27 28 29 30 31 32 33 34 35 36 37 38 39 40 41 42 43 44 45 46 47 48 49 50

000
ASUS43 KLMK 251410
RWRKY
KENTUCKY REGIONAL WEATHER ROUNDUP
NATIONAL WEATHER SERVICE LOUISVILLE KY
900 AM EST SUN JAN 25 2015

NOTE "FAIR" INDICATES FEW OR NO CLOUDS BELOW 12,000 FEET
WITH NO SIGNIFICANT WEATHER AND/OR OBSTRUCTIONS TO VISIBILITY.

KYZ001>023-026-027-061>063-070>075-251500-
WESTERN AND SOUTH CENTRAL KENTUCKY

CITY           SKY/WX    TMP DP  RH WIND       PRES   REMARKS
PADUCAH        CLOUDY    42  34  73 SW7       29.68F
HENDERSON      CLOUDY    41  30  65 S13       29.67F
OWENSBORO      CLOUDY    40  34  79 S7        29.70S
HOPKINSVILLE   CLOUDY    41  33  73 SW8       29.73F
BOWLING GREEN  CLOUDY    39  31  72 S10       29.76S WCI  32
GLASGOW        PTSUNNY   39  32  75 S8        29.76S WCI  34
$$

KYZ024-025-028>034-038-045-046-053-251500-
NORTH CENTRAL KENTUCKY

CITY           SKY/WX    TMP DP  RH WIND       PRES   REMARKS
LOUISVILLE/SDF CLOUDY    40  32  73 SE7       29.71F
LOUISVILLE/LOU CLOUDY    39  31  72 SE6       29.72F WCI  35
FORT KNOX      CLOUDY    38  31  77 S12       29.70F WCI  30
$$

KYZ035>037-039>044-047>052-055>060-089>105-251500-
NORTHEAST KENTUCKY

CITY           SKY/WX    TMP DP  RH WIND       PRES   REMARKS
LEXINGTON      CLOUDY    36  30  79 S12       29.75S WCI  28
COVINGTON      CLOUDY    37  31  78 S10       29.72R WCI  30
FRANKFORT      CLOUDY    37  30  75 S8        29.73F WCI  31
$$

KYZ054-064>069-076>088-106>120-251500-
SOUTHEAST KENTUCKY

CITY           SKY/WX    TMP DP  RH WIND       PRES   REMARKS
JACKSON        CLOUDY    35  30  82 SW5       29.78F WCI  31
LONDON         PTSUNNY   38  27  64 S5        29.80F WCI  34
SOMERSET       CLOUDY    34  30  86 S6        29.81S WCI  29
MIDDLESBORO    MOSUNNY   35  30  82 W5        29.86F WCI  31
MONTICELLO     PTSUNNY   38  32  79 S6        29.82S WCI  33
$$




USA.gov is the U.S. government's official web portal to all federal, state and local government web resources and services.